When you browse on this site, cookies collect data to enhance your experience and personalize the content and advertising you see.
Visit our Privacy Policy to learn more. By continuing to use the site, you agree to this use of cookies and data.
  • In Österreich
  • Länderverzeichnis
  • Für 7 Tage
  • Wassertemperatur
  • Wetterkarte
  • News
  • Widgets
  • user-avatar
    Anmelden

    Stündliche Wetter Berezhcy

    Heute, 29 Mai, Freitag

    Zeit Temperatur Niederschläge Wind Luftdruck Luftfeuchtigkeit
    00:00 +11°C° 0.1 mm 1 m/S 750 mmHg 92%
    01:00 +11°C° 0.1 mm 1 m/S 750 mmHg 93%
    02:00 +10°C° 0.1 mm 2 m/S 749 mmHg 93%
    03:00 +10°C° 0.9 mm 2 m/S 749 mmHg 94%
    04:00 +10°C° 0.9 mm 3 m/S 748 mmHg 95%
    05:00 +10°C° 0.9 mm 3 m/S 748 mmHg 96%
    06:00 +11°C° 1.7 mm 4 m/S 748 mmHg 95%
    07:00 +10°C° 1.7 mm 5 m/S 747 mmHg 94%
    08:00 +10°C° 1.7 mm 6 m/S 747 mmHg 93%
    09:00 +10°C° 2 mm 7 m/S 747 mmHg 93%
    10:00 +10°C° 2 mm 7 m/S 747 mmHg 93%
    11:00 +10°C° 2 mm 7 m/S 747 mmHg 93%
    12:00 +10°C° 0.4 mm 7 m/S 747 mmHg 92%
    13:00 +11°C° 0.4 mm 7 m/S 747 mmHg 91%
    14:00 +11°C° 0.4 mm 7 m/S 747 mmHg 90%
    15:00 +11°C° 0.3 mm 6 m/S 746 mmHg 91%
    16:00 +11°C° 0.3 mm 6 m/S 746 mmHg 92%
    17:00 +11°C° 0.3 mm 6 m/S 746 mmHg 93%
    18:00 +11°C° 0.9 mm 6 m/S 746 mmHg 94%
    19:00 +11°C° 0.9 mm 6 m/S 746 mmHg 95%
    20:00 +11°C° 0.9 mm 6 m/S 745 mmHg 95%
    21:00 +12°C° 0.6 mm 5 m/S 745 mmHg 96%
    22:00 +12°C° 0.6 mm 4 m/S 745 mmHg 96%
    23:00 +12°C° 0.6 mm 4 m/S 745 mmHg 97%

    Morgen, 30 Mai, Samstag

    Zeit Temperatur Niederschläge Wind Luftdruck Luftfeuchtigkeit
    00:00 +12°C° 0.1 mm 3 m/S 745 mmHg 97%
    01:00 +12°C° 0.1 mm 3 m/S 744 mmHg 98%
    02:00 +12°C° 0.1 mm 3 m/S 744 mmHg 98%
    03:00 +12°C° 0 mm 2 m/S 744 mmHg 98%
    04:00 +12°C° 0 mm 2 m/S 744 mmHg 98%
    05:00 +12°C° 0 mm 2 m/S 744 mmHg 98%
    06:00 +13°C° 0 mm 2 m/S 744 mmHg 96%
    07:00 +15°C° 0 mm 2 m/S 744 mmHg 94%
    08:00 +16°C° 0 mm 2 m/S 744 mmHg 91%
    09:00 +16°C° 0.5 mm 2 m/S 743 mmHg 88%
    10:00 +17°C° 0.5 mm 3 m/S 743 mmHg 86%
    11:00 +18°C° 0.5 mm 3 m/S 743 mmHg 83%
    12:00 +17°C° 3.9 mm 3 m/S 742 mmHg 88%
    13:00 +15°C° 3.9 mm 4 m/S 742 mmHg 92%
    14:00 +14°C° 3.9 mm 4 m/S 741 mmHg 97%
    15:00 +14°C° 5.6 mm 4 m/S 741 mmHg 97%
    16:00 +14°C° 5.6 mm 4 m/S 740 mmHg 97%
    17:00 +14°C° 5.6 mm 5 m/S 739 mmHg 97%
    18:00 +15°C° 4.4 mm 5 m/S 739 mmHg 97%
    19:00 +15°C° 4.4 mm 5 m/S 738 mmHg 97%
    20:00 +16°C° 4.4 mm 5 m/S 738 mmHg 97%
    21:00 +16°C° 1.2 mm 5 m/S 738 mmHg 96%
    22:00 +16°C° 1.2 mm 6 m/S 737 mmHg 95%
    23:00 +15°C° 1.2 mm 6 m/S 737 mmHg 94%

    übermorgen, 31 Mai, Sonntag

    Zeit Temperatur Niederschläge Wind Luftdruck Luftfeuchtigkeit
    00:00 +15°C° 0 mm 6 m/S 738 mmHg 94%
    01:00 +14°C° 0 mm 6 m/S 738 mmHg 95%
    02:00 +13°C° 0 mm 6 m/S 738 mmHg 95%
    03:00 +13°C° 0 mm 6 m/S 739 mmHg 95%
    04:00 +12°C° 0 mm 5 m/S 740 mmHg 94%
    05:00 +12°C° 0 mm 5 m/S 740 mmHg 93%
    06:00 +12°C° 0 mm 5 m/S 741 mmHg 92%
    07:00 +13°C° 0 mm 5 m/S 742 mmHg 90%
    08:00 +13°C° 0 mm 4 m/S 743 mmHg 88%
    09:00 +14°C° 0 mm 4 m/S 743 mmHg 85%
    10:00 +14°C° 0 mm 4 m/S 744 mmHg 81%
    11:00 +15°C° 0 mm 4 m/S 745 mmHg 77%
    12:00 +17°C° 0 mm 3 m/S 745 mmHg 73%
    13:00 +18°C° 0 mm 3 m/S 746 mmHg 69%
    14:00 +20°C° 0 mm 2 m/S 746 mmHg 64%
    15:00 +18°C° 1.1 mm 3 m/S 747 mmHg 72%
    16:00 +17°C° 1.1 mm 3 m/S 747 mmHg 80%
    17:00 +15°C° 1.1 mm 4 m/S 747 mmHg 88%
    18:00 +14°C° 1.7 mm 3 m/S 748 mmHg 91%
    19:00 +13°C° 1.7 mm 3 m/S 748 mmHg 94%
    20:00 +12°C° 1.7 mm 3 m/S 749 mmHg 97%
    21:00 +12°C° 0.1 mm 3 m/S 749 mmHg 97%
    22:00 +12°C° 0.1 mm 3 m/S 750 mmHg 97%
    23:00 +13°C° 0.1 mm 3 m/S 750 mmHg 97%

    1 Juni, Montag

    Zeit Temperatur Niederschläge Wind Luftdruck Luftfeuchtigkeit
    00:00 +12°C° 0 mm 3 m/S 750 mmHg 96%
    01:00 +12°C° 0 mm 3 m/S 750 mmHg 96%
    02:00 +12°C° 0 mm 3 m/S 751 mmHg 95%
    03:00 +12°C° 0 mm 4 m/S 751 mmHg 95%
    04:00 +12°C° 0 mm 4 m/S 751 mmHg 95%
    05:00 +12°C° 0 mm 4 m/S 751 mmHg 95%
    06:00 +12°C° 0.1 mm 4 m/S 752 mmHg 93%
    07:00 +12°C° 0.1 mm 4 m/S 752 mmHg 91%
    08:00 +12°C° 0.1 mm 4 m/S 752 mmHg 90%
    09:00 +14°C° 0 mm 5 m/S 753 mmHg 82%
    10:00 +16°C° 0 mm 5 m/S 753 mmHg 73%
    11:00 +17°C° 0 mm 5 m/S 753 mmHg 65%
    12:00 +19°C° 0 mm 5 m/S 753 mmHg 62%
    13:00 +20°C° 0 mm 5 m/S 753 mmHg 59%
    14:00 +20°C° 0 mm 5 m/S 753 mmHg 56%
    15:00 +20°C° 0 mm 5 m/S 753 mmHg 59%
    16:00 +19°C° 0 mm 5 m/S 753 mmHg 63%
    17:00 +19°C° 0 mm 4 m/S 753 mmHg 66%
    18:00 +17°C° 0 mm 4 m/S 753 mmHg 69%
    19:00 +14°C° 0 mm 4 m/S 754 mmHg 73%
    20:00 +13°C° 0 mm 3 m/S 754 mmHg 77%
    21:00 +12°C° 0 mm 3 m/S 754 mmHg 81%
    22:00 +12°C° 0 mm 2 m/S 754 mmHg 85%
    23:00 +10°C° 0 mm 2 m/S 754 mmHg 90%

    2 Juni, Dienstag

    Zeit Temperatur Niederschläge Wind Luftdruck Luftfeuchtigkeit
    00:00 +9°C° 0 mm 2 m/S 754 mmHg 91%
    01:00 +9°C° 0 mm 2 m/S 754 mmHg 92%
    02:00 +10°C° 0 mm 1 m/S 754 mmHg 94%
    03:00 +10°C° 0 mm 1 m/S 754 mmHg 93%
    04:00 +10°C° 0 mm 1 m/S 754 mmHg 93%
    05:00 +10°C° 0 mm 1 m/S 754 mmHg 92%
    06:00 +12°C° 0 mm 2 m/S 754 mmHg 85%
    07:00 +14°C° 0 mm 2 m/S 754 mmHg 78%
    08:00 +16°C° 0 mm 2 m/S 754 mmHg 71%
    09:00 +18°C° 0 mm 2 m/S 754 mmHg 67%
    10:00 +19°C° 0 mm 2 m/S 754 mmHg 62%
    11:00 +21°C° 0 mm 3 m/S 754 mmHg 58%
    12:00 +21°C° 0.2 mm 3 m/S 753 mmHg 58%
    13:00 +21°C° 0.2 mm 2 m/S 753 mmHg 59%
    14:00 +21°C° 0.2 mm 2 m/S 753 mmHg 59%
    15:00 +21°C° 0.5 mm 2 m/S 752 mmHg 65%
    16:00 +20°C° 0.5 mm 2 m/S 752 mmHg 71%
    17:00 +20°C° 0.5 mm 3 m/S 752 mmHg 77%
    18:00 +19°C° 0.3 mm 2 m/S 752 mmHg 81%
    19:00 +17°C° 0.3 mm 2 m/S 751 mmHg 85%
    20:00 +16°C° 0.3 mm 1 m/S 751 mmHg 90%
    21:00 +15°C° 0 mm 2 m/S 751 mmHg 91%
    22:00 +14°C° 0 mm 2 m/S 752 mmHg 93%
    23:00 +14°C° 0 mm 2 m/S 752 mmHg 95%

    3 Juni, Mittwoch

    Zeit Temperatur Niederschläge Wind Luftdruck Luftfeuchtigkeit
    00:00 +13°C° 0 mm 1 m/S 752 mmHg 95%
    01:00 +12°C° 0 mm 1 m/S 752 mmHg 95%
    02:00 +12°C° 0 mm 1 m/S 752 mmHg 95%
    03:00 +12°C° 0 mm 1 m/S 752 mmHg 94%
    04:00 +12°C° 0 mm 1 m/S 752 mmHg 94%
    05:00 +11°C° 0 mm 1 m/S 752 mmHg 94%
    06:00 +13°C° 0 mm 1 m/S 752 mmHg 89%
    07:00 +14°C° 0 mm 1 m/S 752 mmHg 85%
    08:00 +16°C° 0 mm 1 m/S 752 mmHg 80%
    09:00 +17°C° 0 mm 2 m/S 752 mmHg 71%
    10:00 +19°C° 0 mm 2 m/S 752 mmHg 63%
    11:00 +20°C° 0 mm 2 m/S 752 mmHg 54%
    12:00 +21°C° 0 mm 2 m/S 752 mmHg 52%
    13:00 +21°C° 0 mm 2 m/S 752 mmHg 49%
    14:00 +23°C° 0 mm 2 m/S 751 mmHg 47%
    15:00 +21°C° 0 mm 2 m/S 751 mmHg 49%
    16:00 +21°C° 0 mm 2 m/S 751 mmHg 51%
    17:00 +21°C° 0 mm 2 m/S 751 mmHg 54%
    18:00 +19°C° 0 mm 2 m/S 751 mmHg 61%
    19:00 +17°C° 0 mm 2 m/S 751 mmHg 68%
    20:00 +16°C° 0 mm 2 m/S 751 mmHg 75%
    21:00 +15°C° 0 mm 2 m/S 751 mmHg 77%
    22:00 +14°C° 0 mm 2 m/S 752 mmHg 79%
    23:00 +13°C° 0 mm 2 m/S 752 mmHg 81%
    Mehr zeigen